Location: Clermont
(50.2608°N, 4.3172°E)
Time: 05:35:56
(UTC+00:00)

Sich 1 - Pass Details

Date: 13 August 2020
Orbit: 593 x 626 km, 82.5° (Epoch: 19 September)

Event Time Altitude Azimuth Distance (km) Brightness Sun altitude
Rises 19:33:08 0° 180° (S) 2,899 6.2 -4.9°
Reaches altitude 10° 19:35:22 10° 177° (S) 1,998 5.4 -5.2°
Maximum altitude 19:39:45 65° 96° (E) 694 3.1 -5.8°
Drops below altitude 10° 19:44:10 10° 15° (NNE) 2,011 5.9 -6.4°
Sets 19:46:25 0° 13° (NNE) 2,920 6.8 -6.7°
